User: anonymous   Login
Location: Unspecified
(0.0000°N, 0.0000°E)
Time: 03:44:53
(UTC+02:00)
Language:

Palapa 6 Rocket - Orbit

View from above orbital plane
View from above orbital plane
View from above satellite
View from above satellite

Ground track
Ground track

The orbit data is extracted from the following two-line orbital elements,

1 20571U 90034B   17290.13358388 +.00000570 +00000-0 +33742-4 0  9994
2 20571 022.7480 173.6335 0508158 262.8222 091.4216 14.12018990409785
Epoch (UTC): 17 October 2017 03:12:21
Eccentricity: 0.0508158
inclination: 22.7480°
perigee height: 485 km
apogee height: 1220 km
right ascension of ascending node: 173.6335°
argument of perigee: 262.8222°
revolutions per day: 14.12018990
mean anomaly at epoch: 91.4216°
orbit number at epoch: 40978

The dashed part of the orbit path shows where the satellite is in the earth's shadow,  

DLR